User: anonymous   Login
Location: Unspecified
(0.0000°N, 0.0000°E)
Time: 15:46:07
(UTC+00:00)
Language:

COSMOS 2439 - Orbit

View from above orbital plane
View from above orbital plane
View from above satellite
View from above satellite

Ground track
Ground track

The orbit data is extracted from the following two-line orbital elements,

1 32956U 08025D   24105.90133127  .00000009  00000-0 -43129-5 0  9992
2 32956  82.5026 130.8997 0019760 244.5201 115.3835 12.43042196721152
Epoch (UTC): 14 April 2024 21:37:55
Eccentricity: 0.0019760
inclination: 82.5026°
perigee height: 1478 km
apogee height: 1509 km
right ascension of ascending node: 130.8997°
argument of perigee: 244.5201°
revolutions per day: 12.43042196
mean anomaly at epoch: 115.3835°
orbit number at epoch: 72115

The dashed part of the orbit path shows where the satellite is in the earth's shadow,  

DLR